Location: Trois-Rivi�res
(46.3500°N, 72.5500°W)
Time: 18:55:27
(UTC-05:00)

Vanguard 1 Rocket - Visible Passes

Search period start: 18 February 2018 00:00
Search period end: 28 February 2018 00:00
Orbit: 655 x 4222 km, 34.3° (Epoch: 17 February)

Date Brightness Start Highest point End Pass type
(mag) Time Alt. Az. Time Alt. Az. Time Alt. Az.
18 Feb 10.7 01:07:22 48° SE 01:07:22 48° SE 01:21:35 10° E visible
18 Feb 10.4 03:24:37 49° SW 03:30:29 55° SSW 03:48:09 10° SE visible
18 Feb 10.7 05:41:53 13° W 05:58:01 31° SW 06:10:28 10° S visible
18 Feb 11.0 20:59:47 10° S 21:42:39 - ENE 21:05:22 21° S visible
18 Feb 11.2 23:59:55 29° ESE 23:59:55 29° ESE 00:08:26 10° E visible
19 Feb 10.4 02:17:11 60° S 02:17:11 60° S 02:36:40 10° ESE visible
19 Feb 10.5 04:34:27 29° WSW 04:45:51 42° SW 05:01:08 10° SSE visible
19 Feb 11.0 19:51:50 10° SSE 19:58:42 19° SE 19:58:42 19° SE visible
19 Feb 11.1 22:11:35 10° SW 22:52:31 14° E 22:54:26 10° E visible
20 Feb 10.7 01:09:47 48° SE 01:09:47 48° SE 01:24:20 10° ESE visible
20 Feb 10.4 03:27:02 47° SW 03:32:40 52° SSW 03:50:42 10° SE visible
20 Feb 10.8 05:44:19 12° W 05:59:48 26° SW 06:12:05 10° S visible
20 Feb 10.8 21:01:22 10° SSW 21:45:09 - E 21:09:26 28° S visible
20 Feb 11.1 23:25:21 10° WSW 00:02:26 30° ESE 00:11:10 10° E visible
21 Feb 10.4 02:19:42 58° S 02:19:42 58° S 02:39:19 10° ESE visible
21 Feb 10.6 04:36:58 27° WSW 04:47:46 38° SW 05:03:15 10° SSE visible
21 Feb 10.8 19:52:35 10° S 20:02:50 25° SE 20:02:50 25° SE visible
21 Feb 10.9 22:13:49 10° SW 22:55:08 14° E 22:57:08 10° E visible
22 Feb 10.7 01:12:25 48° SE 01:12:25 48° SE 01:27:01 10° ESE visible
22 Feb 10.5 03:29:42 44° SW 03:34:45 48° SSW 03:53:04 10° SE visible
22 Feb 11.0 05:46:58 11° W 06:01:28 22° SW 06:13:10 10° S visible
22 Feb 11.0 18:46:49 10° SSE 18:54:17 14° ESE 18:56:15 14° ESE visible
22 Feb 10.5 21:03:18 10° SSW 21:47:54 - E 21:13:35 36° S visible
22 Feb 11.2 23:27:54 10° WSW 00:05:12 30° ESE 00:13:49 10° E visible
23 Feb 10.5 02:22:29 55° S 02:22:29 55° S 02:41:50 10° SE visible
23 Feb 10.8 04:39:46 25° WSW 04:49:34 33° SW 05:05:02 10° SSE visible
23 Feb 10.6 19:53:59 10° S 20:07:00 30° SE 20:07:00 30° SE visible
23 Feb 10.7 22:16:15 10° SW 22:58:03 13° E 22:59:45 10° E visible
24 Feb 10.7 01:15:20 46° SE 01:15:20 46° SE 01:29:36 10° ESE visible
24 Feb 10.6 03:32:38 42° SW 03:36:42 44° SSW 03:55:13 10° SSE visible
24 Feb 11.1 05:50:27 10° W 06:03:01 17° WSW 06:13:21 10° SSW visible
24 Feb 10.8 18:46:35 10° SSE 18:55:54 18° SE 19:00:23 17° ESE visible
24 Feb 10.4 21:05:31 10° SW 21:17:44 43° S 21:17:44 43° S visible
24 Feb 11.1 23:30:35 10° WSW 00:08:17 28° ESE 00:16:24 10° ESE visible
25 Feb 10.5 02:25:35 51° S 02:25:35 51° S 02:44:10 10° SE visible
25 Feb 10.9 04:42:53 23° WSW 04:51:15 28° SW 05:06:24 10° S visible
25 Feb 10.4 19:55:49 10° SSW 20:09:06 34° SE 20:11:05 34° SE visible
25 Feb 10.5 22:18:51 10° WSW 23:01:19 12° E 23:02:18 10° E visible
26 Feb 10.8 01:18:37 42° SE 01:18:37 42° SE 01:32:03 10° ESE visible
26 Feb 10.7 03:35:56 38° SW 03:38:33 39° SW 03:57:04 10° SSE visible
26 Feb 11.3 05:56:27 10° W 06:04:31 13° WSW 06:11:44 10° SW visible
26 Feb 10.6 18:47:31 10° S 18:57:37 22° SE 19:04:23 19° ESE visible
26 Feb 10.2 21:07:58 10° SW 21:21:42 49° SSE 21:21:42 49° SSE visible
26 Feb 11.0 23:33:21 10° WSW 00:11:45 26° ESE 00:18:53 10° ESE visible
27 Feb 10.6 02:29:04 46° S 02:29:04 46° S 02:46:18 10° SE visible
27 Feb 11.0 04:46:23 21° WSW 04:52:51 23° SW 05:07:11 10° S visible
27 Feb 10.3 19:57:58 10° SSW 20:11:04 39° SE 20:14:57 36° SE visible
27 Feb 10.4 22:21:35 10° WSW 23:04:56 10° E 22:32:16 45° SW visible
